Vitoria, Spain

11:31 PM CEST on August 28, 2016 (GMT +0200)
Foronda

Weather History for LEVT - April, 2013

Change the Weather History Date:

Sunday, April 21, 2013

  Actual Average Record
Temperature  
Mean Temperature 42 °F -  
Max Temperature 57 °F 66 °F 77 °F (2002)
Min Temperature 28 °F 42 °F 28 °F (2013)
Degree Days  
Heating Degree Days 22    
Moisture  
Dew Point 33 °F    
Average Humidity 72    
Maximum Humidity 100    
Minimum Humidity 41    
Precipitation  
Precipitation 0.00 in - - ()
Sea Level Pressure  
Sea Level Pressure 30.19 in    
Wind  
Wind Speed 4 mph ()    
Max Wind Speed 17 mph    
Max Gust Speed -    
Visibility 6.2 miles    
Events      
Averages and records for this station are not official NWS values.
T = Trace of Precipitation, MM = Missing Value Source: Averaged Metar Reports

Daily Weather History Graph

Daily Weather History Graph

Search for Another Location

Airport or City:

Trip Planner

Search our weather history database for the weather conditions in past years. The results will help you decide how hot, cold, wet, or windy it might be!

Date:

Astronomy

Apr. 21, 2013 Rise Set
Actual Time 7:19 AM CEST 9:00 PM CEST
Civil Twilight 6:49 AM CEST 9:30 PM CEST
Nautical Twilight 6:13 AM CEST 10:06 PM CEST
Astronomical Twilight 5:34 AM CEST 10:45 PM CEST
Moon 4:24 PM CEST (4/21) 4:40 AM CEST (4/21)
Length of Visible Light 14h 40m
Length of Day
13h 40m
Waxing Gibbous, 77% of the Moon is Illuminated
Apr 21
Waxing Gibbous
Apr 25
Full
May 2
Last Quarter
May 10
New
May 18
First Quarter

Hourly Weather History & Observations

Time (CEST) Temp. Windchill Dew Point Humidity Pressure Visibility Wind Dir Wind Speed Gust Speed Precip Events Conditions
12:00 AM 39.2 °F 37.0 °F 32.0 °F 75% 30.27 in - North 3.5 mph - N/A   Clear
12:30 AM 37.4 °F - 33.8 °F 87% 30.27 in - North 2.3 mph - N/A   Clear
1:00 AM 35.6 °F 32.8 °F 32.0 °F 87% 30.24 in - NNE 3.5 mph - N/A   Clear
1:30 AM 33.8 °F - 30.2 °F 87% 30.24 in - Calm Calm - N/A   Clear
2:00 AM 33.8 °F - 32.0 °F 93% 30.24 in - Calm Calm - N/A   Clear
2:30 AM 32.0 °F - 30.2 °F 93% 30.24 in - Calm Calm - N/A   Clear
3:00 AM 32.0 °F - 30.2 °F 93% 30.21 in - Calm Calm - N/A   Clear
3:30 AM 32.0 °F - 30.2 °F 93% 30.21 in - Calm Calm - N/A   Clear
4:00 AM 30.2 °F - 30.2 °F 100% 30.21 in - Calm Calm - N/A   Clear
5:00 AM 30.2 °F - 28.4 °F 93% 30.21 in - Calm Calm - N/A   Clear
5:30 AM 30.2 °F - 28.4 °F 93% 30.21 in - Variable 1.2 mph - N/A   Clear
6:00 AM 28.4 °F - 28.4 °F 100% 30.21 in - Calm Calm - N/A   Clear
6:30 AM 28.4 °F - 28.4 °F 100% 30.21 in - NE 1.2 mph - N/A   Clear
7:00 AM 28.4 °F - 28.4 °F 100% 30.18 in 6.2 mi Calm Calm - N/A   Partly Cloudy
7:30 AM 28.4 °F - 28.4 °F 100% 30.21 in 6.2 mi Calm Calm - N/A   Partly Cloudy
8:00 AM 30.2 °F - 28.4 °F 93% 30.21 in 6.2 mi Calm Calm - N/A   Partly Cloudy
8:30 AM 33.8 °F - 30.2 °F 87% 30.21 in 6.2 mi Calm Calm - N/A   Partly Cloudy
9:00 AM 33.8 °F - 30.2 °F 87% 30.21 in 6.2 mi Variable 1.2 mph - N/A   Partly Cloudy
9:30 AM 37.4 °F - 32.0 °F 81% 30.21 in 6.2 mi Calm Calm - N/A   Partly Cloudy
10:00 AM 39.2 °F - 33.8 °F 81% 30.21 in 6.2 mi Calm Calm - N/A   Partly Cloudy
10:30 AM 42.8 °F - 33.8 °F 70% 30.21 in 6.2 mi Calm Calm - N/A   Partly Cloudy
11:00 AM 46.4 °F - 35.6 °F 66% 30.21 in 6.2 mi Calm Calm - N/A   Partly Cloudy
11:30 AM 48.2 °F - 37.4 °F 66% 30.18 in 6.2 mi Variable 1.2 mph - N/A   Partly Cloudy
12:30 PM 51.8 °F - 37.4 °F 58% 30.18 in 6.2 mi NNE 5.8 mph - N/A   Partly Cloudy
1:00 PM 53.6 °F - 37.4 °F 54% 30.18 in 6.2 mi NE 9.2 mph - N/A   Partly Cloudy
1:30 PM 55.4 °F - 37.4 °F 51% 30.15 in 6.2 mi ENE 10.4 mph - N/A   Partly Cloudy
2:00 PM 55.4 °F - 33.8 °F 44% 30.15 in 6.2 mi NE 13.8 mph - N/A   Partly Cloudy
2:30 PM 57.2 °F - 33.8 °F 41% 30.15 in 6.2 mi NE 13.8 mph - N/A   Partly Cloudy
3:00 PM 57.2 °F - 37.4 °F 48% 30.15 in 6.2 mi NNE 13.8 mph - N/A   Partly Cloudy
3:30 PM 57.2 °F - 35.6 °F 44% 30.12 in 6.2 mi North 12.7 mph - N/A   Partly Cloudy
4:00 PM 57.2 °F - 35.6 °F 44% 30.12 in 6.2 mi NNE 12.7 mph - N/A   Partly Cloudy
4:30 PM 57.2 °F - 35.6 °F 44% 30.12 in 6.2 mi NNE 12.7 mph - N/A   Partly Cloudy
5:00 PM 57.2 °F - 33.8 °F 41% 30.09 in 6.2 mi NNE 11.5 mph - N/A   Partly Cloudy
5:30 PM 57.2 °F - 35.6 °F 44% 30.09 in 6.2 mi NNE 12.7 mph - N/A   Partly Cloudy
6:30 PM 55.4 °F - 35.6 °F 47% 30.12 in 6.2 mi North 17.3 mph - N/A   Partly Cloudy
7:00 PM 51.8 °F - 35.6 °F 54% 30.12 in 6.2 mi North 16.1 mph - N/A   Partly Cloudy
7:30 PM 51.8 °F - 35.6 °F 54% 30.15 in - North 15.0 mph - N/A   Clear
8:00 PM 50.0 °F - 35.6 °F 58% 30.15 in 6.2 mi North 11.5 mph - N/A   Partly Cloudy
8:30 PM 48.2 °F - 35.6 °F 62% 30.15 in 6.2 mi North 12.7 mph - N/A   Partly Cloudy
9:00 PM 46.4 °F 41.9 °F 35.6 °F 66% 30.18 in 6.2 mi North 9.2 mph - N/A   Partly Cloudy
9:30 PM 46.4 °F 41.5 °F 35.6 °F 66% 30.18 in 6.2 mi North 10.4 mph - N/A   Partly Cloudy
10:00 PM 44.6 °F 41.4 °F 35.6 °F 71% 30.18 in 6.2 mi North 5.8 mph - N/A   Partly Cloudy
10:30 PM 44.6 °F 42.2 °F 35.6 °F 71% 30.21 in 6.2 mi North 4.6 mph - N/A   Partly Cloudy
11:00 PM 44.6 °F 43.1 °F 35.6 °F 71% 30.21 in 6.2 mi North 3.5 mph - N/A   Partly Cloudy
11:30 PM 44.6 °F - 37.4 °F 76% 30.21 in 6.2 mi Variable 2.3 mph - N/A   Partly Cloudy